{"data":{"norad_id":65193,"intl_designator":"2025-175V","name":"STARLINK-34950","alt_names":[],"object_type":"PAYLOAD","status":"ACTIVE","operator":null,"country":"US","launch_date":"2025-08-14","launch_site_code":"AFWTR","launch_vehicle":null,"mission":null,"orbit_class":"UNKNOWN","rcs_meters":null,"size_class":null,"mass_kg":null,"dimensions":null,"purposes":["comms"],"wikipedia_slug":null,"has_3d_model":false,"image_url":null,"decayed_at":null,"tle_current":{"epoch":"2026-09-20T21:36:22.329216Z","epoch_age_seconds":85843,"freshness":"FRESH","line1":"1 65193U 25175V   26263.90025844  .00009689  00000+0  30202-3 0  9996","line2":"2 65193  97.2817 132.8709 0002901  91.6049 268.5527 15.33444594 62163","mean_motion":15.33444594,"eccentricity":0.0002901,"inclination_deg":97.2817,"raan_deg":132.8709,"arg_perigee_deg":91.6049,"mean_anomaly_deg":268.5527,"bstar":0.00030202,"rev_number":6216,"period_min":93.906229519761,"perigee_km":463.55903047971,"apogee_km":467.5297344178,"semimajor_km":6843.6813824488,"source":"CELESTRAK","updated_at":"2026-09-21T09:00:35.531711Z"}}}